Location: Chuathbaluk
(61.5726°N, 159.2454°W)
Time: 22:58:37
(UTC+00:00)

Max Valier Satellite - Pass Details

Date: 24 January 2021
Orbit: 488 x 504 km, 97.3° (Epoch: 25 February)

Event Time Altitude Azimuth Distance (km) Brightness Sun altitude
Exits shadow 06:27:14 11° 347° (NNW) 1,677 ? -28.4°
Drops below altitude 10° 06:27:21 10° 347° (NNW) 1,725 ? -28.4°
Sets 06:29:27 0° 345° (NNW) 2,617 ? -28.6°
